Waarnemingen

Advertentie
Mijn weer
Estaca de Bares, Spanje (8004): temperatuur & dauwpunt: 15.02.2018 14:00:00 - 21.02.2018 14:00:00 (CET)Estaca de Bares, Spanje (8004): windsnelheid & windstoten: 15.02.2018 14:00:00 - 21.02.2018 14:00:00 (CET)Estaca de Bares, Spanje (8004): windrichting: 15.02.2018 14:00:00 - 21.02.2018 14:00:00 (CET)Estaca de Bares, Spanje (8004): luchtdruk: 15.02.2018 14:00:00 - 21.02.2018 14:00:00 (CET)Estaca de Bares, Spanje (8004): zicht: 15.02.2018 14:00:00 - 21.02.2018 14:00:00 (CET)Estaca de Bares, Spanje (8004): Zonneschijnduur: 15.02.2018 14:00:00 - 21.02.2018 14:00:00 (CET)Estaca de Bares, Spanje (8004): neerslag: 15.02.2018 14:00:00 - 21.02.2018 14:00:00 (CET)
Datum & Tijd tt [°C] td [°C] ff [km/u] ff [kn] fx [km/u] fx [kn] dd ppp [hPa] vv [km] sd [min] rr [mm]
21.02.2018 14:00:00 - - - - - - - - - - -
21.02.2018 13:00:00 10,1 4,3 38 20 63 34 O 1018,2 2,2 28 -
21.02.2018 12:00:00 10,3 3,6 46 25 64 34 ONO 1018,8 2,1 39 0,0
21.02.2018 11:00:00 10,6 2,5 54 29 64 35 ONO 1018,7 2,0 35 0,0
21.02.2018 10:00:00 9,7 2,9 47 25 67 36 ONO 1019,1 2,0 23 0,0
21.02.2018 09:00:00 9,5 2,3 48 26 61 33 ONO 1018,9 2,0 6 0,0
21.02.2018 08:00:00 9,7 4,3 49 26 61 33 ONO 1018,7 2,1 0 0,2
21.02.2018 07:00:00 9,8 3,2 48 26 61 33 ONO 1019,2 2,0 0 -
21.02.2018 06:00:00 9,5 3,4 40 22 56 31 ONO 1019,9 2,1 0 0,0
21.02.2018 05:00:00 9,6 3,6 40 22 54 29 ONO 1020,3 2,2 0 0,0
21.02.2018 04:00:00 9,4 2,7 34 19 49 26 ONO 1020,9 2,2 0 0,0
21.02.2018 03:00:00 9,4 2,9 41 22 55 30 ONO 1021,7 2,2 0 0,0
21.02.2018 02:00:00 9,7 4,3 31 17 53 29 NO 1022,0 2,2 0 0,0
21.02.2018 01:00:00 9,8 5,5 29 16 46 25 NO 1022,4 2,2 0 -
21.02.2018 00:00:00 10,3 6,8 24 13 43 23 NO 1022,7 2,1 0 0,0
20.02.2018 23:00:00 10,5 7,4 34 18 39 21 ONO 1023,0 1,9 0 0,0
20.02.2018 22:00:00 10,5 7,8 30 16 36 19 ONO 1023,2 1,9 0 0,0
20.02.2018 21:00:00 10,5 8,1 31 17 50 27 ONO 1023,4 2,3 0 0,0
20.02.2018 20:00:00 10,7 8,7 34 19 48 26 NO 1023,2 2,2 0 0,2
20.02.2018 19:00:00 10,2 8,5 30 16 44 24 NO 1023,3 2,2 0 -
20.02.2018 18:00:00 11,3 8,7 25 13 40 21 NO 1023,0 1,8 0 0,0
20.02.2018 17:00:00 12,1 8,5 22 12 27 15 ONO 1023,3 2,2 23 0,0
20.02.2018 16:00:00 12,2 8,8 25 13 34 19 ONO 1023,6 1,9 0 0,0
20.02.2018 15:00:00 12,0 8,7 23 13 37 20 NO 1024,0 2,1 0 0,0
20.02.2018 14:00:00 12,3 8,5 24 13 37 20 NO 1024,4 2,2 21 0,0
20.02.2018 13:00:00 12,3 8,9 23 12 34 19 NO 1024,6 2,0 29 -
20.02.2018 12:00:00 12,4 8,9 18 10 36 20 NO 1024,7 2,0 60 0,0
20.02.2018 11:00:00 11,9 8,5 22 12 34 19 NO 1024,6 2,1 60 0,0
20.02.2018 10:00:00 11,7 8,4 21 11 31 17 NO 1024,3 2,2 54 0,0
20.02.2018 09:00:00 11,3 8,1 18 10 30 16 NO 1024,1 2,1 12 0,0
20.02.2018 08:00:00 11,0 7,8 19 10 29 16 NO 1023,6 2,1 0 0,0
20.02.2018 07:00:00 11,0 7,8 18 10 37 20 NNO 1023,7 2,1 0 -
20.02.2018 06:00:00 11,2 8,3 19 10 31 17 NNO 1023,7 2,2 0 0,0
20.02.2018 05:00:00 10,7 7,1 22 12 36 20 N 1023,7 2,2 0 0,0
20.02.2018 04:00:00 11,0 7,8 11 6 22 12 N 1023,8 1,9 0 0,0
20.02.2018 03:00:00 11,3 8,4 13 7 27 15 NNO 1024,1 2,1 0 0,0
20.02.2018 02:00:00 11,2 8,1 16 9 27 15 NNO 1024,2 2,1 0 0,0
20.02.2018 01:00:00 11,2 8,1 13 7 21 12 NO 1024,2 2,1 0 -
20.02.2018 00:00:00 11,1 8,0 14 8 24 13 NNO 1024,0 2,2 0 0,0
19.02.2018 23:00:00 11,1 8,0 15 8 28 15 NNO 1024,0 2,1 0 0,0
19.02.2018 22:00:00 11,2 7,8 14 8 29 16 N 1023,9 2,2 0 0,0
19.02.2018 21:00:00 11,3 8,1 14 8 29 16 N 1024,0 2,0 0 0,0
19.02.2018 20:00:00 11,4 8,4 11 6 20 11 N 1023,9 2,0 0 0,0
19.02.2018 19:00:00 11,3 8,4 10 5 22 12 N 1023,5 2,1 0 -
19.02.2018 18:00:00 11,7 8,5 13 7 19 10 N 1023,1 2,0 13 0,0
19.02.2018 17:00:00 13,1 8,9 11 6 21 11 N 1023,1 2,0 53 0,0
19.02.2018 16:00:00 12,3 8,8 13 7 22 12 NNW 1023,2 2,0 30 0,0
19.02.2018 15:00:00 13,8 9,8 6 4 19 10 NNW 1023,3 1,6 21 0,0
19.02.2018 14:00:00 13,0 9,3 11 6 18 10 N 1023,4 1,9 10 0,0
19.02.2018 13:00:00 12,8 9,3 10 5 20 11 N 1023,6 2,0 4 -
19.02.2018 12:00:00 - - - - - - - - - - -
19.02.2018 11:00:00 11,8 8,8 13 7 19 11 N 1023,3 2,0 0 0,0
19.02.2018 10:00:00 11,3 8,5 12 7 24 13 NNW 1023,4 1,8 0 0,0
19.02.2018 09:00:00 11,2 8,8 9 5 19 10 NW 1023,3 1,6 0 0,0
19.02.2018 08:00:00 11,1 8,7 10 5 21 11 NW 1023,0 1,5 0 0,0
19.02.2018 07:00:00 11,0 8,4 12 6 19 11 NW 1022,9 1,9 0 -
19.02.2018 06:00:00 10,9 8,3 11 6 19 10 NNW 1022,9 2,1 0 0,0
19.02.2018 05:00:00 11,0 8,8 10 6 18 10 WNW 1022,8 1,9 0 0,0
19.02.2018 04:00:00 10,6 8,5 11 6 19 10 W 1022,9 1,9 0 0,0
19.02.2018 03:00:00 10,5 8,4 14 8 17 9 WZW 1023,1 1,8 0 0,0
19.02.2018 02:00:00 10,5 8,4 15 8 18 10 W 1023,4 2,0 0 0,0
19.02.2018 01:00:00 10,4 8,1 11 6 14 8 W 1024,1 1,8 0 -
19.02.2018 00:00:00 10,4 8,1 14 8 17 9 W 1024,1 1,7 0 0,0
18.02.2018 23:00:00 10,5 8,3 13 7 14 8 W 1024,6 1,6 0 0,0
18.02.2018 22:00:00 10,7 8,4 10 5 12 7 WZW 1025,0 1,6 0 0,0
18.02.2018 21:00:00 11,0 8,8 11 6 14 7 W 1025,3 1,9 0 0,0
18.02.2018 20:00:00 11,3 8,9 11 6 14 8 W 1025,5 2,0 0 0,0
18.02.2018 19:00:00 11,4 8,8 12 7 18 10 W 1025,5 2,2 0 -
18.02.2018 18:00:00 11,8 9,0 15 8 20 11 W 1025,7 2,2 0 0,0
18.02.2018 17:00:00 12,3 9,2 18 10 25 14 W 1025,5 2,1 1 0,0
18.02.2018 16:00:00 12,1 8,8 23 13 26 14 W 1025,8 2,2 1 0,0
18.02.2018 15:00:00 14,0 9,7 18 10 27 15 W 1026,1 2,1 55 0,0
18.02.2018 14:00:00 12,9 8,5 22 12 26 14 WNW 1026,3 2,3 44 0,0
18.02.2018 13:00:00 15,1 9,9 12 6 18 10 W 1026,7 2,3 60 -
18.02.2018 12:00:00 13,7 9,3 17 9 19 10 WZW 1026,8 2,1 36 0,0
18.02.2018 11:00:00 12,0 8,7 14 8 18 10 WZW 1027,2 1,9 11 0,0
18.02.2018 10:00:00 11,0 7,7 17 9 20 11 WZW 1027,1 2,2 10 0,0
18.02.2018 09:00:00 9,8 6,7 13 7 18 10 WZW 1027,2 2,0 0 0,0
18.02.2018 08:00:00 9,2 6,4 13 7 17 9 W 1027,0 2,0 0 0,0
18.02.2018 07:00:00 8,6 5,9 11 6 15 8 WZW 1026,8 1,8 0 -
18.02.2018 06:00:00 8,6 5,5 7 4 14 8 WZW 1026,8 1,7 0 0,0
18.02.2018 05:00:00 8,6 4,6 11 6 14 7 Z 1026,7 2,3 0 0,0
18.02.2018 04:00:00 8,4 4,8 7 4 14 7 Z 1027,4 2,3 0 0,0
18.02.2018 03:00:00 8,9 5,0 3 2 10 5 Z 1028,1 2,3 0 0,0
18.02.2018 02:00:00 8,8 5,0 5 3 12 7 ZZW 1028,4 2,3 0 0,0
18.02.2018 01:00:00 9,2 5,3 6 3 8 4 W 1028,9 1,5 0 -
18.02.2018 00:00:00 9,1 5,1 6 3 9 5 ZW 1028,9 2,2 0 0,0
17.02.2018 23:00:00 9,2 5,6 6 3 10 5 WZW 1028,9 1,8 0 0,0
17.02.2018 22:00:00 9,5 5,1 2 1 6 4 W 1028,7 1,9 0 0,0
17.02.2018 21:00:00 9,7 5,0 3 2 6 3 O 1028,7 2,1 0 0,0
17.02.2018 20:00:00 9,9 4,6 3 2 8 4 O 1028,4 2,3 0 0,0
17.02.2018 19:00:00 10,6 5,0 2 1 10 6 NNW 1028,2 2,1 27 -
17.02.2018 18:00:00 12,3 5,6 5 3 12 7 N 1027,9 1,9 60 0,0
17.02.2018 17:00:00 13,4 6,2 5 3 15 8 N 1027,7 1,9 60 0,0
17.02.2018 16:00:00 12,4 6,2 8 4 13 7 N 1028,0 1,9 59 0,0
17.02.2018 15:00:00 13,0 5,9 5 3 11 6 NNO 1028,0 2,3 60 0,0
17.02.2018 14:00:00 13,1 6,4 5 3 14 7 N 1028,2 2,0 55 0,0
17.02.2018 13:00:00 12,3 6,8 5 3 13 7 W 1028,7 2,2 41 -
17.02.2018 12:00:00 13,3 7,7 5 3 16 8 WNW 1028,2 2,1 60 0,0
17.02.2018 11:00:00 12,6 7,4 11 6 19 10 W 1027,9 1,9 52 0,0
17.02.2018 10:00:00 11,2 6,5 9 5 25 13 NW 1027,3 1,9 60 0,0
17.02.2018 09:00:00 10,2 5,3 10 6 24 13 NNW 1027,1 1,9 8 0,0
17.02.2018 08:00:00 10,1 4,6 17 9 25 13 NNW 1026,4 2,2 0 0,0
17.02.2018 07:00:00 10,0 5,9 14 8 22 12 NNW 1025,9 1,9 0 -
17.02.2018 06:00:00 9,2 6,8 19 10 25 13 W 1025,6 2,2 0 0,2
17.02.2018 05:00:00 9,2 6,7 14 8 29 16 W 1025,2 2,0 0 0,0
17.02.2018 04:00:00 9,0 6,2 23 13 29 16 WZW 1025,0 2,0 0 0,0
17.02.2018 03:00:00 8,7 5,9 24 13 28 15 WZW 1024,9 2,1 0 0,0
17.02.2018 02:00:00 8,6 6,2 21 12 25 14 WZW 1024,7 2,0 0 0,0
17.02.2018 01:00:00 8,8 6,5 19 10 25 13 WZW 1024,4 1,8 0 -
17.02.2018 00:00:00 9,0 6,8 20 11 24 13 W 1023,9 2,1 0 0,0
16.02.2018 23:00:00 9,0 6,5 14 8 29 16 WZW 1023,3 1,9 0 0,0
16.02.2018 22:00:00 8,9 6,5 26 14 29 16 W 1023,1 2,4 0 0,0
16.02.2018 21:00:00 9,2 7,0 23 13 51 28 WNW 1022,4 1,9 0 0,2
16.02.2018 20:00:00 10,4 9,0 42 23 55 30 W 1021,0 1,7 0 0,0
16.02.2018 19:00:00 10,8 9,4 40 21 46 25 WNW 1020,3 2,1 0 -
16.02.2018 18:00:00 11,0 9,6 24 13 29 16 W 1019,6 2,1 0 0,0
16.02.2018 17:00:00 11,4 9,9 14 8 26 14 WNW 1019,2 0,8 0 0,0
16.02.2018 16:00:00 11,8 10,4 20 11 28 15 WNW 1019,0 0,2 0 0,0
16.02.2018 15:00:00 12,0 10,5 13 7 20 11 WNW 1019,2 0,1 0 0,0
16.02.2018 14:00:00 12,3 10,9 3 2 8 4 WNW 1019,9 0,4 0 0,0
16.02.2018 13:00:00 12,4 11,0 3 2 8 5 ZO 1020,4 0,6 0 -
16.02.2018 12:00:00 11,9 10,5 3 2 10 5 Z 1020,7 0,8 0 0,0
16.02.2018 11:00:00 11,5 10,0 6 4 19 10 ZO 1020,8 1,8 0 0,0
16.02.2018 10:00:00 11,6 10,2 16 8 23 12 O 1020,5 1,1 0 0,0
16.02.2018 09:00:00 11,3 9,9 10 5 22 12 OZO 1021,0 1,3 0 0,0
16.02.2018 08:00:00 11,2 9,8 16 8 22 12 OZO 1020,4 2,6 0 0,0
16.02.2018 07:00:00 11,2 9,8 16 8 23 12 OZO 1020,6 0,9 0 -
16.02.2018 06:00:00 11,2 9,8 11 6 18 10 OZO 1021,0 0,8 0 0,0
16.02.2018 05:00:00 11,2 9,8 12 6 16 8 O 1020,9 0,8 0 0,0
16.02.2018 04:00:00 11,1 9,7 12 6 16 9 O 1021,1 1,2 0 0,0
16.02.2018 03:00:00 11,3 9,9 11 6 17 9 O 1021,4 0,7 0 0,0
16.02.2018 02:00:00 11,4 9,9 9 5 16 8 O 1021,6 0,4 0 0,0
16.02.2018 01:00:00 11,3 9,9 13 7 16 9 OZO 1021,6 0,7 0 -
16.02.2018 00:00:00 11,3 9,9 11 6 16 9 O 1021,6 0,4 0 0,0
15.02.2018 23:00:00 11,3 9,9 14 8 23 12 ONO 1021,4 0,2 0 0,0
15.02.2018 22:00:00 11,2 9,8 16 8 23 12 NO 1021,1 0,1 0 0,0
15.02.2018 21:00:00 11,3 9,7 14 8 26 14 NNO 1020,6 0,2 0 0,0
15.02.2018 20:00:00 12,0 10,3 10 5 19 11 N 1020,4 0,2 0 0,0
15.02.2018 19:00:00 12,7 10,6 3 1 24 13 WZW 1019,4 0,5 0 -
15.02.2018 18:00:00 13,9 11,2 21 11 50 27 W 1018,7 2,0 0 0,0
15.02.2018 17:00:00 14,3 11,7 34 18 44 24 WZW 1018,1 1,6 0 0,0
15.02.2018 16:00:00 14,4 11,9 39 21 45 24 W 1017,2 2,2 2 0,0
15.02.2018 15:00:00 14,3 12,2 31 17 41 22 WZW 1017,4 1,5 0 0,0
15.02.2018 14:00:00 14,7 12,2 25 13 54 29 WZW 1017,6 2,2 0 0,0

tt = temperatuur
td = dauwpunt
ff = windsnelheid
fx = windstoten
dd = windrichting
ppp = luchtdruk
vv = zicht
sd = Zonneschijnduur
rr = neerslag

Weerstations in de omgeving